Preview of NWS' New Version of Forecast
This preview is not operational and should not be used for support decisions.

Regional Weather Roundup (RWR)

Issued by National Weather Service (NWS)

                            
000
ASUS45 KBOI 180210
RWRID 

IDAHO REGIONAL WEATHER ROUNDUP
NATIONAL WEATHER SERVICE BOISE ID
800 PM MDT MON JUN 17 2019

NOTE: "FAIR" INDICATES FEW OR NO CLOUDS BELOW 12000 FEET
WITH NO SIGNIFICANT WEATHER AND/OR OBSTRUCTIONS TO VISIBILITY

IDZ012-014-180300-
SOUTHWEST IDAHO

  
CITY           SKY/WX    TMP DP  RH WIND       PRES   REMARKS
BOISE          SUNNY     86  36  16 NW13      29.91R                  
CALDWELL       SUNNY     85  47  26 NW9       29.89S                  
MOUNTAIN HOME  SUNNY     87  32  14 N17       29.91R                  
$$

IDZ016-017-180300-
SOUTHCENTRAL IDAHO

  
CITY           SKY/WX    TMP DP  RH WIND       PRES   REMARKS
BURLEY         PTSUNNY   75  49  39 E6        29.97R                  
JEROME         SUNNY     81  38  21 W10       29.97R                  
TWIN FALLS     SUNNY     79  38  22 NW10      29.98R                  
$$

IDZ019>023-180300-
SOUTHEAST IDAHO

  
CITY           SKY/WX    TMP DP  RH WIND       PRES   REMARKS
IDAHO FALLS    CLOUDY    67  54  63 NW16G24   30.05R                  
POCATELLO      PTSUNNY   70  46  42 CALM      30.01S                  
REXBURG        CLOUDY    70  47  43 NE5       30.05R                  
$$

IDZ006-010-011-018-031-032-180300-
CENTRAL IDAHO MOUNTAINS

  
CITY           SKY/WX    TMP DP  RH WIND       PRES   REMARKS
MCCALL         PTSUNNY   69  48  47 NW8       30.05R                  
HAILEY         PTSUNNY   63  55  77 CALM      30.08R                  
STANLEY          N/A     64  48  56 NW5       30.15R                  
SALMON         PTSUNNY   72  48  42 N7        30.03R                  
CHALLIS        PTSUNNY   73  49  42 E3        30.04R                  
$$

IDZ002-004-006-007-026-180300-
NORTHERN IDAHO

  
CITY           SKY/WX    TMP DP  RH WIND       PRES   REMARKS
LEWISTON       SUNNY     87  51  28 W9        29.91S                  
LOWELL           N/A     79  54  41 VRB3      29.91R                  
COEUR D'ALENE  MOSUNNY   80  55  42 W5        29.95S                  
MULLAN PASS    SUNNY     57  48  72 W5          N/A                   
$$